OBJECT A, 66053

Orbit data source: Space-Track

You're viewing an Uncataloged Satellite

Recently launched and/or uncataloged satellites may have evolving metadata. Metadata may include but not limited to: Owner, Maufacturer, Bus, Motor, and Mission.

OBJECT A, 66053 is a satellite in SSO that was launched on Sun, 19 Oct 2025 UTC launched from the Jiuquan Satellite Launch Center, China (JSC). Unknown objects in Earth's orbit typically refer to objects detected orbiting the Earth but have not yet been identified or cataloged. These objects could be anything from previously untracked satellites, spent rocket stages, debris from satellite collisions, or even natural meteoroids temporarily captured by Earth's gravity.

Loading next visibility...
Identifier
66053, 2025-234A
Orbit
SSO
Country
Flag of TBDTBD
Related business
None
Manufacturer
Unknown
Mission
Civil Radar Imaging
Bus & Motor
Unknown
Mass
Unknown
Launch date (UTC)
2025-10-19 (5 months ago)
Launch vehicle
Unknown
Launch site
Jiuquan Satellite Launch Center, China (JSC)
Object type
Unknown
Shape & HBR
Box + 2 Pan, 4.4 m
Radar Cross Section
2.315 m²

Expand to show TLE details & history
Last TLE update: 10 hours ago

TLE from 10 hours ago
0 OBJECT A
1 66053U 25234A   26094.27731266  .00072344  00000-0  21205-2 0  9993
2 66053  97.4340 164.8330 0011534  65.3452 294.8991 15.34863366 25524
Epoch: 2026-04-04T06:39Z
TLE epoch observation values (Epoch: 2026-04-04T06:39:19.813Z)
Latitude
-0.00005°
Longitude
-127.59894°
Altitude
461.122 km
Speed
7.638 km/s
True Right ascension
10h 59m 19s
True Declination
0° 00' 00"
Sunlit
Object was in full shadow at epoch
Visualization orbit readout
Latitude
Unknown
Longitude
Unknown
Altitude
Unknown
Speed
Unknown
Apparent Right ascension
Unknown
Apparent Declination
Unknown
Sunlit
N/A
Visualization observer readout
Local Sidereal Time
22:15:51
Azimuth
Unknown
Elevation
Unknown
Doppler factor
Unknown
Orbital elements
Apogee altitude
466.159 km
Perigee altitude
450.388 km
Semi-major axis
6,836.411 km
Eccentricity
0.00115
Inclination
97.434°
RAAN
164.833°
Arg. of periapsis
65.3452°
True anomaly
294.77914°
Mean anomaly
294.8991°
Eccentric anomaly
294.83913°
Mean motion
3.83973 °/min
Orbital period
93.76 mins
BSTAR
0.0021205
Loading maneuver chart data...
Computing Atmospheric mass density...
Loading historical data...
Loading historical data...
Loading historical data...
Loading historical data...
Loading historical data...
Loading historical data...
Loading historical data...
Other satellites on launch #234 in the year 2025 (2025-10-19 UTC)

Documentation

Showing up to 5 results
|